Nashua, NH

6:28 AM EST on December 10, 2019 (GMT -0500)
Boire

Weather History for KASH - August, 2019

Change the Weather History Date:

Sunday, August 4, 2019

  Actual Average Record
Temperature  
Mean Temperature 72 °F -  
Max Temperature 84 °F 83 °F 93 °F (1955)
Min Temperature 63 °F 61 °F 43 °F (1964)
Cooling Degree Days 8    
Growing Degree Days 22 (Base 50)    
Moisture  
Dew Point 61 °F    
Average Humidity 71    
Maximum Humidity 100    
Minimum Humidity 37    
Precipitation  
Precipitation 0.00 in - - ()
Sea Level Pressure  
Sea Level Pressure 29.91 in    
Wind  
Wind Speed 3 mph (NW)    
Max Wind Speed 14 mph    
Max Gust Speed 20 mph    
Visibility 10 miles    
Events      
Averages and records for this station are not official NWS values.
T = Trace of Precipitation, MM = Missing Value Source: NWS Daily Summary

Daily Weather History Graph

Daily Weather History Graph

Search for Another Location

Airport or City:

Astronomy

Aug. 04, 2019 Rise Set
Actual Time 5:40 AM EDT 8:03 PM EDT
Civil Twilight 5:08 AM EDT 8:34 PM EDT
Nautical Twilight 4:29 AM EDT 9:14 PM EDT
Astronomical Twilight 3:45 AM EDT 9:57 PM EDT
Moon 9:47 AM EDT (8/4) 10:35 PM EDT (8/4)
Length of Visible Light 15h 26m
Length of Day
14h 22m
Waxing Crescent, 18% of the Moon is Illuminated
Aug 4
Waxing Crescent
Aug 7
First Quarter
Aug 15
Full
Aug 23
Last Quarter
Aug 30
New

Hourly Weather History & Observations

Time (EDT) Temp. Heat Index Dew Point Humidity Pressure Visibility Wind Dir Wind Speed Gust Speed Precip Events Conditions
12:56 AM 66.9 °F - 66.9 °F 100% 29.91 in 10.0 mi Calm Calm - N/A   Clear
1:56 AM 64.9 °F - 64.9 °F 100% 29.92 in 10.0 mi Calm Calm - N/A   Clear
2:56 AM 64.9 °F - 64.9 °F 100% 29.91 in 10.0 mi Calm Calm - N/A   Clear
3:56 AM 64.0 °F - 64.0 °F 100% 29.90 in 10.0 mi NW 4.6 mph - N/A   Clear
4:56 AM 63.0 °F - 63.0 °F 100% 29.90 in 10.0 mi Calm Calm - N/A   Clear
5:56 AM 63.0 °F - 63.0 °F 100% 29.91 in 10.0 mi Calm Calm - N/A   Clear
6:56 AM 63.0 °F - 63.0 °F 100% 29.92 in 10.0 mi WNW 5.8 mph - N/A   Clear
7:56 AM 69.1 °F - 66.9 °F 93% 29.92 in 10.0 mi NW 6.9 mph - N/A   Clear
8:56 AM 75.0 °F - 64.9 °F 71% 29.92 in 10.0 mi NNW 9.2 mph - N/A   Mostly Cloudy
9:56 AM 73.9 °F - 66.0 °F 76% 29.92 in 10.0 mi Calm Calm - N/A   Mostly Cloudy
10:56 AM 75.9 °F - 66.0 °F 71% 29.93 in 10.0 mi NW 5.8 mph - N/A   Mostly Cloudy
11:56 AM 78.1 °F - 62.1 °F 58% 29.92 in 10.0 mi NNW 8.1 mph - N/A   Mostly Cloudy
12:56 PM 80.1 °F 81.7 °F 64.0 °F 58% 29.91 in 10.0 mi North 4.6 mph - N/A   Mostly Cloudy
1:56 PM 81.0 °F 82.2 °F 63.0 °F 54% 29.88 in 10.0 mi WNW 8.1 mph - N/A   Mostly Cloudy
2:56 PM 80.1 °F 82.1 °F 66.0 °F 62% 29.88 in 10.0 mi West 4.6 mph - N/A   Mostly Cloudy
3:56 PM 82.0 °F 83.4 °F 64.0 °F 54% 29.87 in 10.0 mi NW 6.9 mph - N/A   Mostly Cloudy
4:56 PM 82.0 °F 82.1 °F 59.0 °F 45% 29.87 in 10.0 mi NW 13.8 mph 19.6 mph N/A   Scattered Clouds
5:56 PM 82.0 °F 81.7 °F 57.0 °F 42% 29.88 in 10.0 mi NNW 8.1 mph 16.1 mph N/A   Scattered Clouds
6:56 PM 79.0 °F - 51.1 °F 38% 29.91 in 10.0 mi NNW 5.8 mph 13.8 mph N/A   Scattered Clouds
7:56 PM 75.9 °F - 48.0 °F 37% 29.91 in 10.0 mi NW 4.6 mph - N/A   Scattered Clouds
8:56 PM 66.9 °F - 54.0 °F 63% 29.94 in 10.0 mi WNW 4.6 mph - N/A   Clear
9:56 PM 64.9 °F - 52.0 °F 63% 29.95 in 10.0 mi WNW 4.6 mph - N/A   Clear
10:56 PM 63.0 °F - 51.1 °F 65% 29.97 in 10.0 mi NW 4.6 mph - N/A   Clear
11:56 PM 63.0 °F - 50.0 °F 63% 29.98 in 10.0 mi WNW 6.9 mph - N/A   Clear